Regional Weather Roundup
Issued by NWS

Home | Current Version | Previous Version | Text Only | Print | Product List | Glossary Off
Versions: 1 2 3 4 5 6 7 8 9 10 11 12 13 14 15 16 17 18 19 20 21 22 23 24 25 26 27 28 29 30 31 32 33 34 35 36 37 38 39 40 41 42 43 44 45 46 47 48 49 50

143
ASUS45 KTFX 240610
RWRMT
MONTANA REGIONAL WEATHER ROUNDUP
NATIONAL WEATHER SERVICE GREAT FALLS MT
1200 AM MDT WED MAY 24 2017

NOTE: "FAIR" INDICATES FEW OR NO CLOUDS BELOW 12000 FEET WITH NO
SIGNIFICANT WEATHER AND/OR OBSTRUCTIONS TO VISIBILITY.

MTZ001>007-043-240700-
WEST OF THE DIVIDE

CITY           SKY/WX    TMP DP  RH WIND       PRES   REMARKS
KALISPELL      CLEAR     59  42  53 S6        29.62F
MISSOULA       CLEAR     61  44  53 NE3       29.72F
BUTTE          CLEAR     54  40  59 S6        29.87F
MULLAN PASS    CLEAR     55  38  52 SW13G26   29.78F
ANACONDA         N/A     55  37  50 SE7       29.82F
DEER LODGE       N/A     55  43  62 SW3       29.82F
EUREKA           N/A     72  43  35 SE9       29.52F
HAMILTON         N/A     64  43  45 S10       29.75F
RONAN            N/A     67  43  41 SE6       29.75F
$$

MTZ008-052>055-240700-
SOUTHWEST MONTANA

CITY           SKY/WX    TMP DP  RH WIND       PRES   REMARKS
BOZEMAN        CLEAR     54  42  64 E5        29.79F
DILLON         CLEAR     61  36  39 S12       29.86F
W YELLOWSTONE  CLEAR     54  36  50 SW7G17    30.02F
ENNIS          CLEAR     61  39  44 S16G23    29.92F
THREE FORKS      N/A     62  41  46 SW7       29.79F
$$

MTZ009-010-012-014-046-048-049-054-240700-
EAST SLOPES AND CENTRAL MONTANA

CITY           SKY/WX    TMP DP  RH WIND       PRES   REMARKS
CUT BANK       PTCLDY    60  38  43 SW15      29.58S
GREAT FALLS    MOCLDY    66  38  35 SW14      29.63F
MALMSTROM AFB  PTCLDY    60  45  59 SW15      29.63F
HELENA         CLOUDY    70  38  31 W12       29.74F
CHOTEAU          N/A     66  36  32 SW9       29.64F
$$

MTZ011-013-016-021-045-047-050-051-240700-
NORTH CENTRAL MONTANA

CITY           SKY/WX    TMP DP  RH WIND       PRES   REMARKS
HAVRE          PTCLDY    72  44  36 S14       29.51F
LEWISTOWN      PTCLDY    56  44  64 E5        29.69F
N BAR RANCH      N/A     59  41  51 CALM      29.77F
CHINOOK          N/A     70  45  40 S15G23    29.53F
$$

MTZ017>020-022>027-061-062-240700-
NORTHEAST MONTANA

CITY           SKY/WX    TMP DP  RH WIND       PRES   REMARKS
GLASGOW        CLEAR     57  35  43 SE13      29.70F
JORDAN           N/A     57  35  43 SE13      29.72F
SIDNEY         PTCLDY    56  34  43 S10       29.82F
WOLF POINT     CLEAR     60  33  36 VRB3      29.75F
MALTA          CLEAR     63  34  34 S17       29.62F
PLENTYWOOD       N/A     55  36  47 SE13      29.79F
POPLAR           N/A     57  32  38 SE9       29.77F
$$

MTZ028>42-056>058-240700-
SOUTHCENTRAL AND SOUTHEAST MONTANA

CITY           SKY/WX    TMP DP  RH WIND       PRES   REMARKS
BAKER          PTCLDY    48  36  63 SE12      29.88F
BILLINGS       PTCLDY    58  43  57 S6        29.75F
LIVINGSTON     CLEAR     63  42  46 W10       29.79F
MILES CITY     CLEAR     52  35  52 S9        29.79F
BIG TIMBER     CLEAR     55  46  71 CALM      29.80F
FORSYTH          N/A     57  37  47 SE8       29.76F
LAUREL           N/A     60  35  39 SW12      29.76F
ROUNDUP          N/A     60  36  40 S2        29.68F
$$

REGIONAL REPORTS...DAKOTAS

CITY           SKY/WX    TMP DP  RH WIND       PRES   REMARKS
WILLISTON      PTCLDY    58  36  43 S13       29.83F
MINOT          PTCLDY    54  37  52 SE8       29.88F
DICKINSON      CLOUDY    42  33  70 SE12      29.88F
BEACH            N/A     50  32  50 S15       29.89F
TIOGA            N/A     54  39  58 S10       29.86F
WATFORD CITY     N/A     57  32  38 SE13      29.84F
BISMARCK       CLEAR     41  36  82 SE5       29.95F
GRAND FORKS    MOCLDY    47  42  83 W5        29.91F
FARGO          CLEAR     43  41  93 NE5       29.90F
BUFFALO SD       N/A     48  37  65 S10       29.85F
RAPID CITY     CLOUDY    43  34  70 S6        29.96F
$$

REGIONAL REPORTS...WYOMING/IDAHO/WASHINGTON

CITY           SKY/WX    TMP DP  RH WIND       PRES   REMARKS
GILLETTE       CLEAR     46  39  76 S9        29.90F
SHERIDAN       CLEAR     47  40  76 S5        29.83F
BUFFALO WY     CLEAR     51  38  60 S9        29.89F
CODY           CLEAR     52  40  63 S13       29.89F
YELLOWSTONE LA   N/A     35  33  92 CALM      30.12F
IDAHO FALLS    CLEAR     64  38  38 S14       29.95F
SALMON         CLEAR     61  39  44 CALM      29.82F
BOISE          CLEAR     69  43  38 SE12      29.80F
SPOKANE        PTCLDY    64  37  36 SW17      29.66F
$$

REGIONAL REPORTS...ALBERTA

CITY           SKY/WX    TMP DP  RH WIND       PRES   REMARKS
EDMONTON       CLEAR     57  46  67 NE2       29.20F
CALGARY        MOCLDY    63  39  42 S12       29.33F
LETHBRIDGE     CLEAR     61  39  44 SW12      29.46F
MEDICINE HAT   PTCLDY    66  45  45 S12       29.41F
WATERTON GATE    N/A     64  36  34 SW14G30     N/A
CARDSTON         N/A     61  36  39 SW7         N/A
MILK RIVER       N/A     70  39  32 SW17G25     N/A
$$

REGIONAL REPORTS...SASKATCHEWAN

CITY           SKY/WX    TMP DP  RH WIND       PRES   REMARKS
SWIFT CURRENT  CLOUDY    57  32  38 S25G31    29.54F
REGINA         PTCLDY    57  32  38 S17G24    29.69F
SASKATOON      PTCLDY    63  36  36 S22G30    29.51F
CYPRESS HILLS    N/A     57  37  47 S14G20      N/A
VAL MARIE        N/A     61  30  31 S20G26      N/A
ROCKGLEN         N/A     52  32  46 S21         N/A
ASSINIBOIA       N/A     61  46  59 SE6         N/A
$$




USA.gov is the U.S. government's official web portal to all federal, state and local government web resources and services.